• In Russia
  • List of Countries
  • For 7 days
  • Water Temperature
  • Satellite Maps
  • Weather Map
  • Weather Widgets
  • user-avatar
    Login

    Hourly Weather Darwin

    Today, 29 April, Saturday

    Time Temperature Precipitation Wind Pressure Humidity
    00:00 +26°C° 0 mm 4 mps 759 mmHg 57%
    01:00 +25°C° 0 mm 4 mps 759 mmHg 55%
    02:00 +25°C° 0 mm 5 mps 758 mmHg 52%
    03:00 +24°C° 0 mm 6 mps 758 mmHg 50%
    04:00 +23°C° 0 mm 6 mps 758 mmHg 49%
    05:00 +23°C° 0 mm 6 mps 759 mmHg 48%
    06:00 +23°C° 0 mm 7 mps 759 mmHg 48%
    07:00 +23°C° 0 mm 7 mps 759 mmHg 47%
    08:00 +24°C° 0 mm 7 mps 759 mmHg 45%
    09:00 +26°C° 0 mm 7 mps 759 mmHg 44%
    10:00 +27°C° 0 mm 6 mps 759 mmHg 42%
    11:00 +29°C° 0 mm 6 mps 759 mmHg 40%
    12:00 +30°C° 0 mm 5 mps 759 mmHg 38%
    13:00 +32°C° 0 mm 5 mps 758 mmHg 39%
    14:00 +33°C° 0 mm 4 mps 758 mmHg 40%
    15:00 +33°C° 0 mm 4 mps 758 mmHg 41%
    16:00 +31°C° 0 mm 3 mps 758 mmHg 46%
    17:00 +29°C° 0 mm 3 mps 758 mmHg 52%
    18:00 +28°C° 0 mm 3 mps 758 mmHg 58%
    19:00 +27°C° 0 mm 3 mps 758 mmHg 57%
    20:00 +27°C° 0 mm 3 mps 759 mmHg 57%
    21:00 +26°C° 0 mm 3 mps 759 mmHg 56%
    22:00 +26°C° 0 mm 3 mps 759 mmHg 55%
    23:00 +26°C° 0 mm 3 mps 759 mmHg 54%

    Tomorrow, 30 April, Sunday

    Time Temperature Precipitation Wind Pressure Humidity
    00:00 +25°C° 0 mm 3 mps 759 mmHg 53%
    01:00 +25°C° 0 mm 3 mps 759 mmHg 53%
    02:00 +24°C° 0 mm 3 mps 758 mmHg 52%
    03:00 +24°C° 0 mm 3 mps 758 mmHg 52%
    04:00 +24°C° 0 mm 3 mps 758 mmHg 51%
    05:00 +23°C° 0 mm 4 mps 759 mmHg 50%
    06:00 +22°C° 0 mm 4 mps 759 mmHg 49%
    07:00 +23°C° 0 mm 4 mps 759 mmHg 51%
    08:00 +26°C° 0 mm 4 mps 759 mmHg 53%
    09:00 +27°C° 0 mm 5 mps 759 mmHg 55%
    10:00 +29°C° 0 mm 4 mps 759 mmHg 52%
    11:00 +30°C° 0 mm 4 mps 759 mmHg 49%
    12:00 +33°C° 0 mm 4 mps 758 mmHg 46%
    13:00 +34°C° 0 mm 3 mps 758 mmHg 46%
    14:00 +34°C° 0 mm 3 mps 757 mmHg 46%
    15:00 +34°C° 0 mm 3 mps 757 mmHg 47%
    16:00 +33°C° 0 mm 3 mps 757 mmHg 54%
    17:00 +30°C° 0 mm 3 mps 757 mmHg 61%
    18:00 +29°C° 0 mm 3 mps 757 mmHg 68%
    19:00 +28°C° 0 mm 2 mps 758 mmHg 72%
    20:00 +27°C° 0 mm 2 mps 758 mmHg 76%
    21:00 +26°C° 0 mm 2 mps 759 mmHg 79%
    22:00 +26°C° 0 mm 1 mps 759 mmHg 80%
    23:00 +26°C° 0 mm 1 mps 759 mmHg 80%

    Day after tomorrow, 1 May, Monday

    Time Temperature Precipitation Wind Pressure Humidity
    00:00 +26°C° 0 mm 1 mps 759 mmHg 81%
    01:00 +26°C° 0 mm 1 mps 759 mmHg 79%
    02:00 +26°C° 0 mm 1 mps 758 mmHg 77%
    03:00 +26°C° 0 mm 1 mps 758 mmHg 75%
    04:00 +25°C° 0.3 mm 2 mps 758 mmHg 72%
    05:00 +25°C° 0.3 mm 2 mps 758 mmHg 69%
    06:00 +25°C° 0.3 mm 3 mps 759 mmHg 67%
    07:00 +26°C° 0 mm 2 mps 759 mmHg 66%
    08:00 +28°C° 0 mm 2 mps 759 mmHg 65%
    09:00 +29°C° 0 mm 2 mps 760 mmHg 64%
    10:00 +30°C° 0 mm 2 mps 760 mmHg 60%
    11:00 +32°C° 0 mm 2 mps 759 mmHg 56%
    12:00 +34°C° 0 mm 2 mps 759 mmHg 53%
    13:00 +35°C° 0.2 mm 2 mps 758 mmHg 52%
    14:00 +35°C° 0.2 mm 2 mps 758 mmHg 52%
    15:00 +35°C° 0.2 mm 2 mps 757 mmHg 52%
    16:00 +34°C° 0.8 mm 2 mps 757 mmHg 59%
    17:00 +31°C° 0.8 mm 2 mps 758 mmHg 66%
    18:00 +30°C° 0.8 mm 2 mps 758 mmHg 73%
    19:00 +29°C° 0.6 mm 2 mps 758 mmHg 76%
    20:00 +28°C° 0.6 mm 2 mps 759 mmHg 79%
    21:00 +28°C° 0.6 mm 2 mps 759 mmHg 82%
    22:00 +27°C° 0.1 mm 2 mps 759 mmHg 83%
    23:00 +27°C° 0.1 mm 1 mps 759 mmHg 84%

    2 May, Tuesday

    Time Temperature Precipitation Wind Pressure Humidity
    00:00 +27°C° 0.1 mm 1 mps 759 mmHg 86%
    01:00 +27°C° 0 mm 1 mps 759 mmHg 85%
    02:00 +26°C° 0 mm 1 mps 758 mmHg 85%
    03:00 +26°C° 0 mm 1 mps 758 mmHg 85%
    04:00 +26°C° 0.1 mm 2 mps 758 mmHg 85%
    05:00 +26°C° 0.1 mm 2 mps 759 mmHg 85%
    06:00 +25°C° 0.1 mm 2 mps 759 mmHg 86%
    07:00 +27°C° 0.3 mm 2 mps 759 mmHg 80%
    08:00 +28°C° 0.3 mm 2 mps 760 mmHg 75%
    09:00 +30°C° 0.3 mm 2 mps 760 mmHg 70%
    10:00 +31°C° 0 mm 2 mps 760 mmHg 64%
    11:00 +32°C° 0 mm 2 mps 759 mmHg 58%
    12:00 +35°C° 0 mm 2 mps 759 mmHg 53%
    13:00 +35°C° 0.2 mm 2 mps 758 mmHg 53%
    14:00 +35°C° 0.2 mm 2 mps 758 mmHg 54%
    15:00 +35°C° 0.2 mm 2 mps 757 mmHg 55%
    16:00 +32°C° 0.2 mm 2 mps 757 mmHg 61%
    17:00 +31°C° 0.2 mm 2 mps 758 mmHg 67%
    18:00 +29°C° 0.2 mm 2 mps 758 mmHg 74%
    19:00 +29°C° 0.2 mm 2 mps 758 mmHg 76%
    20:00 +28°C° 0.2 mm 2 mps 759 mmHg 78%
    21:00 +28°C° 0.2 mm 2 mps 759 mmHg 80%
    22:00 +27°C° 0.5 mm 2 mps 759 mmHg 83%
    23:00 +27°C° 0.5 mm 2 mps 759 mmHg 86%

    3 May, Wednesday

    Time Temperature Precipitation Wind Pressure Humidity
    00:00 +26°C° 0.5 mm 1 mps 759 mmHg 89%
    01:00 +26°C° 0.3 mm 1 mps 759 mmHg 89%
    02:00 +26°C° 0.3 mm 1 mps 758 mmHg 89%
    03:00 +26°C° 0.3 mm 1 mps 758 mmHg 89%
    04:00 +26°C° 0.4 mm 1 mps 758 mmHg 89%
    05:00 +26°C° 0.4 mm 2 mps 759 mmHg 90%
    06:00 +25°C° 0.4 mm 2 mps 759 mmHg 90%
    07:00 +27°C° 0.1 mm 2 mps 759 mmHg 85%
    08:00 +28°C° 0.1 mm 2 mps 760 mmHg 79%
    09:00 +30°C° 0.1 mm 2 mps 760 mmHg 74%
    10:00 +31°C° 0.1 mm 2 mps 759 mmHg 67%
    11:00 +32°C° 0.1 mm 2 mps 759 mmHg 60%
    12:00 +34°C° 0.1 mm 2 mps 759 mmHg 53%
    13:00 +34°C° 0.1 mm 2 mps 758 mmHg 53%
    14:00 +34°C° 0.1 mm 2 mps 758 mmHg 54%
    15:00 +34°C° 0.1 mm 2 mps 757 mmHg 55%
    16:00 +32°C° 0.1 mm 1 mps 757 mmHg 61%
    17:00 +31°C° 0.1 mm 1 mps 758 mmHg 67%
    18:00 +29°C° 0.1 mm 1 mps 758 mmHg 74%
    19:00 +29°C° 0.2 mm 1 mps 758 mmHg 75%
    20:00 +28°C° 0.2 mm 1 mps 759 mmHg 76%
    21:00 +28°C° 0.2 mm 1 mps 759 mmHg 77%
    22:00 +27°C° 0.4 mm 1 mps 759 mmHg 77%
    23:00 +27°C° 0.4 mm 1 mps 759 mmHg 78%

    4 May, Thursday

    Time Temperature Precipitation Wind Pressure Humidity
    00:00 +27°C° 0.4 mm 1 mps 759 mmHg 79%
    01:00 +27°C° 0.5 mm 1 mps 759 mmHg 80%
    02:00 +26°C° 0.5 mm 1 mps 759 mmHg 81%
    03:00 +26°C° 0.5 mm 1 mps 759 mmHg 83%
    04:00 +26°C° 0.4 mm 1 mps 759 mmHg 84%
    05:00 +25°C° 0.4 mm 1 mps 759 mmHg 84%
    06:00 +25°C° 0.4 mm 1 mps 759 mmHg 85%
    07:00 +27°C° 0.2 mm 2 mps 760 mmHg 80%
    08:00 +28°C° 0.2 mm 2 mps 760 mmHg 76%
    09:00 +29°C° 0.2 mm 2 mps 760 mmHg 71%
    10:00 +31°C° 0 mm 2 mps 759 mmHg 63%
    11:00 +33°C° 0 mm 3 mps 759 mmHg 55%
    12:00 +34°C° 0 mm 3 mps 758 mmHg 47%
    13:00 +35°C° 0 mm 3 mps 758 mmHg 47%
    14:00 +35°C° 0 mm 3 mps 757 mmHg 46%
    15:00 +35°C° 0 mm 2 mps 757 mmHg 46%
    16:00 +34°C° 0.1 mm 2 mps 757 mmHg 54%
    17:00 +31°C° 0.1 mm 2 mps 757 mmHg 63%
    18:00 +29°C° 0.1 mm 2 mps 758 mmHg 71%
    19:00 +28°C° 0.4 mm 2 mps 758 mmHg 75%
    20:00 +28°C° 0.4 mm 2 mps 759 mmHg 78%
    21:00 +27°C° 0.4 mm 1 mps 759 mmHg 82%
    22:00 +27°C° 0.5 mm 2 mps 759 mmHg 83%
    23:00 +26°C° 0.5 mm 2 mps 759 mmHg 84%
    Show more